Weather Roundup
Issued by NWS Chicago, IL

Home | Current Version | Previous Version | Graphics & Text | Print | Product List | Glossary On
Versions: 1 2 3 4 5 6 7 8 9 10 11 12 13 14 15 16 17 18 19 20 21 22 23 24 25 26 27 28 29 30 31 32 33 34 35 36 37 38 39 40 41 42 43 44 45 46 47 48 49 50
000
NZUS59 KLOT 210608
HRRLOT

CHICAGO AREA WEATHER ROUNDUP
NATIONAL WEATHER SERVICE CHICAGO/ROMEOVILLE IL
1200 AM CST SUN JAN 21 2018

NOTE: "FAIR" INDICATES FEW OR NO CLOUDS BELOW 12,000 FEET WITH NO
SIGNIFICANT WEATHER AND/OR OBSTRUCTIONS TO VISIBILITY.

* THESE STATIONS ARE NOT UNDER NWS QUALITY CONTROL. THEY ALSO MAY NOT
  REPORT WEATHER SUCH AS PRECIPITATION OR FOG.

ILZ005-006-012>014-019>023-210700-
NORTHEAST ILLINOIS

CITY           SKY/WX    TMP DP  RH WIND       PRES   REMARKS
OHARE          CLOUDY    38  35  89 S3        29.98F
6HR MIN TEMP:  38; 6HR MAX TEMP:  42;

MIDWAY         CLOUDY    41  37  86 S6        29.99F
6HR MIN TEMP:  41; 6HR MAX TEMP:  43;

AURORA         CLOUDY    37  36  96 CALM      29.97F FOG
6HR MIN TEMP:  37; 6HR MAX TEMP:  40;

LANSING*       CLOUDY    37  36  94 CALM      30.01F
JOLIET*        CLOUDY    40  38  92 SE3       29.99F
WAUKEGAN       CLOUDY    37  35  92 S3        29.98S FOG
6HR MIN TEMP:  30; 6HR MAX TEMP:  38;

DUPAGE AIRPORT CLOUDY    38  37  97 S7        29.97F FOG
6HR MIN TEMP:  37; 6HR MAX TEMP:  39;

WHEELING       CLOUDY    39  36  89 CALM      29.99F
6HR MIN TEMP:  34; 6HR MAX TEMP:  42;

KANKAKEE*      CLOUDY   N/A N/A N/A S3        30.02F
MORRIS*        CLOUDY    38  36  92 SE5       29.98F
LEWIS AIRPORT* CLOUDY    38  36  93 S8        29.99F
NORTHERLY ISL    N/A     41  36  82 S9          N/A
$$

WIZ051-052-058>065-066-070>072-210700-
SOUTHEAST WISCONSIN

CITY           SKY/WX    TMP DP  RH WIND       PRES   REMARKS
MILWAUKEE        N/A     35  33  92 SW5       29.97S WCI  31
6HR MIN TEMP:  34; 6HR MAX TEMP:  40;

KENOSHA*       CLOUDY    38  34  85 SW5       29.97F
RACINE*        CLOUDY    37  35  92 SW6       29.99S
BURLINGTON     CLOUDY    32  31  95 CALM      29.97S FOG
WAUKESHA         N/A     32  30  93 SW5       29.97S FOG     WCI  27
WEST BEND        N/A     28  28 100 CALM      29.96R
$$

INZ001>003-010>013-019-020-210700-
NORTHWEST INDIANA

CITY           SKY/WX    TMP DP  RH WIND       PRES   REMARKS
GARY*          CLOUDY    40  36  84 CALM      30.02S
6HR MIN TEMP:  40; 6HR MAX TEMP:  43;

MICHIGAN CITY* NOT AVBL
RENSSELAER*    NOT AVBL
VALPARAISO     CLOUDY    38  34  85 S3        30.02F
$$

LMZ740>746-210700-
SOUTHERN LAKE MICHIGAN

STATION/POSITION TIME  SKY/WX   TEMP WIND        PRES    VSBY
                                AIR  DIR/SP/G
                 (UTC)          (F)  (DEG/KT/KT) (MB)    (MI)
HARRISON CRIB    0540            40  170/ 12/ 13   N/A
BURNHAM HARBOR   0600            41  200/  6/  9   N/A
CALUMET HARBOR   0542                180/  3/  6 1015.5S
BURNS HARBOR     0540            38  180/  8/ 11 1016.9F
MICHIGAN CITY    0540            38  170/ 10/ 12   N/A
$$

ABBREVIATIONS USED IN REMARKS
   TC - TEMPERATURE IN CELSIUS
  WCI - WIND CHILL INDEX
   HX - HEAT INDEX
  VSB - VISIBILITY
$$




USA.gov is the U.S. government's official web portal to all federal, state and local government web resources and services.